Location: Cerda�ola
(41.4919°N, 2.1403°E)
Time: 03:31:41
(UTC+00:00)

SJ-11-01 - Pass Details

Date: 29 March 2020
Orbit: 684 x 701 km, 98.0° (Epoch: 31 May)

Event Time Altitude Azimuth Distance (km) Brightness Sun altitude
Rises 18:57:05 0° 160° (SSE) 3,041 7.3 -8.8°
Reaches altitude 10° 18:59:19 10° 158° (SSE) 2,132 6.5 -9.2°
Maximum altitude 19:03:57 70° 75° (ENE) 736 4.2 -10.1°
Drops below altitude 10° 19:08:39 10° 352° (N) 2,159 7.1 -10.9°
Sets 19:10:55 0° 350° (N) 3,083 8.0 -11.3°
